Voltar ao catálogo

STARLINK-37468

AtivoComunicaçõesSSO
NORAD 68857·PAYLOAD·🇺🇸 United States

Lançado Apr 26, 2026 de Vandenberg Space Force Base

Loading…

Próximas Passagens (próximas 24 horas)

TLE

AtualizadoSource: CelesTrak SupGP

Época: Sep 15, 2026, 03:13 UTC

1 68857C 26094U   26258.13451389 -.00064032  00000+0 -19880-2 0  2584
2 68857  97.2834 271.3764 0001582  88.9926  69.7622 15.33466204    14

Acompanhe STARLINK-37468 em tempo real com AllMySat

Download on the App Store